| time (UTC) | temp F | wind direction | speed MPH | gust MPH | rain 1hr in | rain 24hr in | rain mn in | humidity % | barometer mb |
| 20260905111402 | 57 | 335 | 0.0 | 2.0 | 0.00 | 0.00 | 0.00 | 99 | 1008.8 |
| 20260905110856 | 57 | 199 | 0.0 | 2.0 | 0.00 | 0.00 | 0.00 | 99 | 1008.9 |
| 20260905110350 | 57 | 120 | 1.0 | 2.0 | 0.00 | 0.00 | 0.00 | 99 | 1008.9 |
| 20260905105845 | 57 | 33 | 0.0 | 1.0 | 0.00 | 0.00 | 0.00 | 99 | 1009.1 |
| 20260905105344 | 57 | 193 | 0.0 | 2.0 | 0.00 | 0.00 | 0.00 | 99 | 1008.9 |
| 20260905104839 | 56 | 138 | 0.0 | 2.0 | 0.00 | 0.00 | 0.00 | 99 | 1009.0 |
| 20260905104336 | 57 | 280 | 0.0 | 1.0 | 0.00 | 0.00 | 0.00 | 99 | 1008.6 |
| 20260905103835 | 57 | 207 | 1.0 | 1.0 | 0.00 | 0.00 | 0.00 | 99 | 1008.8 |
| 20260905103330 | 57 | 219 | 1.0 | 3.0 | 0.00 | 0.00 | 0.00 | 99 | 1008.7 |
| 20260905102826 | 57 | 308 | 1.0 | 2.0 | 0.00 | 0.00 | 0.00 | 99 | 1008.5 |
| 20260905102323 | 56 | 286 | 0.0 | 1.0 | 0.00 | 0.00 | 0.00 | 99 | 1008.5 |
| 20260905101823 | 57 | 268 | 0.0 | 2.0 | 0.00 | 0.00 | 0.00 | 99 | 1008.4 |
| 20260905101321 | 57 | 219 | 0.0 | 2.0 | 0.00 | 0.00 | 0.00 | 99 | 1008.6 |
| 20260905100815 | 56 | 9 | 0.0 | 0.0 | 0.00 | 0.00 | 0.00 | 99 | 1008.5 |
| 20260905100311 | 57 | 158 | 0.0 | 1.0 | 0.00 | 0.00 | 0.00 | 99 | 1008.5 |
| 20260905095810 | 57 | 44 | 0.0 | 1.0 | 0.00 | 0.00 | 0.00 | 99 | 1008.6 |
| 20260905095306 | 57 | 92 | 0.0 | 2.0 | 0.02 | 0.00 | 0.00 | 99 | 1008.5 |
| 20260905094800 | 57 | 152 | 1.0 | 2.0 | 0.02 | 0.00 | 0.00 | 99 | 1008.4 |
| 20260905094255 | 57 | 149 | 1.0 | 2.0 | 0.00 | 0.00 | 0.00 | 99 | 1008.4 |
| 20260905093754 | 57 | 235 | 0.0 | 2.0 | 0.00 | 0.00 | 0.00 | 99 | 1008.3 |
| 20260905093250 | 57 | 12 | 0.0 | 2.0 | 0.00 | 0.00 | 0.00 | 99 | 1008.5 |
| 20260905092746 | 57 | 24 | 0.0 | 1.0 | 0.00 | 0.00 | 0.00 | 99 | 1008.4 |
| 20260905092241 | 57 | 196 | 1.0 | 2.0 | 0.00 | 0.00 | 0.00 | 99 | 1008.3 |
| 20260905091740 | 57 | 242 | 0.0 | 3.0 | 0.00 | 0.00 | 0.00 | 99 | 1008.1 |
| 20260905091236 | 57 | 254 | 0.0 | 1.0 | 0.00 | 0.00 | 0.00 | 99 | 1008.2 |
| 20260905090734 | 58 | 246 | 1.0 | 2.0 | 0.00 | 0.00 | 0.00 | 99 | 1008.2 |
| 20260905090230 | 58 | 268 | 1.0 | 2.0 | 0.00 | 0.00 | 0.00 | 99 | 1008.0 |
| 20260905085729 | 58 | 242 | 2.0 | 3.0 | 0.00 | 0.00 | 0.00 | 99 | 1008.1 |
| 20260905085224 | 58 | 144 | 0.0 | 2.0 | 0.00 | 0.00 | 0.00 | 99 | 1008.3 |
| 20260905084719 | 58 | 41 | 0.0 | 1.0 | 0.00 | 0.00 | 0.00 | 99 | 1008.1 |
| 20260905084218 | 58 | 263 | 1.0 | 2.0 | 0.00 | 0.00 | 0.00 | 99 | 1008.1 |
| 20260905083714 | 58 | 9 | 0.0 | 2.0 | 0.00 | 0.00 | 0.00 | 99 | 1008.0 |
| 20260905083209 | 58 | 235 | 0.0 | 2.0 | 0.00 | 0.00 | 0.00 | 99 | 1008.1 |
| 20260905082705 | 58 | 229 | 0.0 | 2.0 | 0.00 | 0.00 | 0.00 | 99 | 1008.1 |
| 20260905082200 | 58 | 247 | 0.0 | 2.0 | 0.00 | 0.00 | 0.00 | 99 | 1008.2 |
| 20260905081655 | 58 | 266 | 0.0 | 2.0 | 0.00 | 0.00 | 0.00 | 99 | 1008.2 |
| 20260905081150 | 58 | 61 | 0.0 | 2.0 | 0.00 | 0.00 | 0.00 | 99 | 1008.2 |
| 20260905080650 | 58 | 277 | 1.0 | 2.0 | 0.00 | 0.00 | 0.00 | 99 | 1008.4 |
| 20260905080149 | 57 | 213 | 0.0 | 1.0 | 0.00 | 0.00 | 0.00 | 99 | 1008.1 |
| 20260905075649 | 58 | 158 | 1.0 | 2.0 | 0.00 | 0.00 | 0.00 | 99 | 1008.2 |
| 20260905075148 | 58 | 144 | 0.0 | 2.0 | 0.00 | 0.00 | 0.00 | 99 | 1008.3 |
| 20260905074647 | 58 | 254 | 0.0 | 1.0 | 0.00 | 0.00 | 0.00 | 99 | 1008.2 |
| 20260905074143 | 58 | 257 | 0.0 | 1.0 | 0.00 | 0.00 | 0.00 | 99 | 1008.3 |
| 20260905073639 | 58 | 241 | 0.0 | 1.0 | 0.00 | 0.00 | 0.00 | 99 | 1008.2 |
| 20260905073134 | 58 | 254 | 0.0 | 1.0 | 0.00 | 0.00 | 0.00 | 99 | 1008.2 |
| 20260905072633 | 58 | 55 | 0.0 | 2.0 | 0.00 | 0.00 | 0.00 | 99 | 1008.4 |
| 20260905072128 | 59 | 189 | 0.0 | 2.0 | 0.00 | 0.00 | 0.00 | 99 | 1008.2 |
| 20260905071625 | 59 | 162 | 0.0 | 1.0 | 0.00 | 0.00 | 0.00 | 99 | 1008.4 |
| 20260905071120 | 59 | 208 | 1.0 | 2.0 | 0.00 | 0.00 | 0.00 | 99 | 1008.2 |
| 20260905070616 | 59 | 144 | 0.0 | 1.0 | 0.00 | 0.00 | 0.00 | 99 | 1008.4 |
| 20260905070112 | 59 | 254 | 0.0 | 1.0 | 0.00 | 0.00 | 0.00 | 99 | 1008.5 |
| 20260905065609 | 59 | 122 | 0.0 | 0.0 | 0.00 | 0.00 | 0.00 | 99 | 1008.5 |
| 20260905065104 | 59 | 106 | 0.0 | 0.0 | 0.00 | 0.00 | 0.00 | 99 | 1008.5 |
| 20260905064559 | 59 | 273 | 0.0 | 1.0 | 0.00 | 0.00 | 0.00 | 99 | 1008.5 |
| 20260905064055 | 59 | 217 | 0.0 | 0.0 | 0.00 | 0.00 | 0.00 | 99 | 1008.4 |
| 20260905063553 | 60 | 264 | 1.0 | 2.0 | 0.00 | 0.00 | 0.00 | 99 | 1008.5 |
| 20260905063050 | 59 | 217 | 0.0 | 1.0 | 0.00 | 0.00 | 0.00 | 99 | 1008.4 |
| 20260905062544 | 60 | 217 | 0.0 | 0.0 | 0.00 | 0.00 | 0.00 | 99 | 1008.5 |
| 20260905062038 | 60 | 192 | 0.0 | 2.0 | 0.00 | 0.00 | 0.00 | 99 | 1008.5 |
| 20260905061534 | 60 | 122 | 0.0 | 0.0 | 0.00 | 0.00 | 0.00 | 99 | 1008.6 |
| 20260905061033 | 60 | 122 | 0.0 | 0.0 | 0.00 | 0.00 | 0.00 | 99 | 1008.8 |
| 20260905060529 | 61 | 122 | 0.0 | 1.0 | 0.00 | 0.00 | 0.00 | 99 | 1008.9 |
| 20260905060025 | 61 | 273 | 0.0 | 2.0 | 0.00 | 0.00 | 0.00 | 99 | 1008.8 |
| 20260905055523 | 61 | 189 | 0.0 | 1.0 | 0.00 | 0.00 | 0.00 | 99 | 1008.8 |
| 20260905055018 | 61 | 162 | 0.0 | 1.0 | 0.00 | 0.00 | 0.00 | 98 | 1008.8 |
| 20260905054514 | 61 | 324 | 0.0 | 0.0 | 0.00 | 0.00 | 0.00 | 98 | 1008.7 |
| 20260905054009 | 61 | 280 | 0.0 | 1.0 | 0.00 | 0.00 | 0.00 | 98 | 1008.9 |
| 20260905053503 | 62 | 324 | 0.0 | 1.0 | 0.00 | 0.00 | 0.00 | 98 | 1009.0 |
| 20260905052959 | 62 | 299 | 0.0 | 1.0 | 0.00 | 0.00 | 0.00 | 98 | 1008.8 |
| 20260905052459 | 62 | 15 | 0.0 | 2.0 | 0.00 | 0.00 | 0.00 | 98 | 1008.8 |
| 20260905051958 | 62 | 357 | 2.0 | 2.0 | 0.00 | 0.00 | 0.00 | 98 | 1008.9 |
| 20260905051454 | 62 | 9 | 0.0 | 2.0 | 0.00 | 0.00 | 0.00 | 98 | 1009.0 |
| 20260905050951 | 62 | 36 | 0.0 | 2.0 | 0.00 | 0.00 | 0.00 | 98 | 1009.1 |
| 20260905050446 | 63 | 1 | 2.0 | 3.0 | 0.00 | 0.00 | 0.00 | 97 | 1009.1 |
| 20260905045942 | 63 | 293 | 1.0 | 2.0 | 0.00 | 0.00 | 0.00 | 97 | 1009.1 |
| 20260905045437 | 63 | 304 | 0.0 | 2.0 | 0.00 | 0.00 | 0.00 | 97 | 1009.1 |
| 20260905044932 | 63 | 319 | 0.0 | 3.0 | 0.00 | 0.00 | 0.00 | 97 | 1009.1 |
| 20260905044422 | 63 | 330 | 0.0 | 1.0 | 0.00 | 0.00 | 0.00 | 97 | 1009.2 |
| 20260905043921 | 63 | 317 | 0.0 | 2.0 | 0.00 | 0.00 | 0.00 | 96 | 1009.1 |
| 20260905043420 | 64 | 8 | 0.0 | 3.0 | 0.00 | 0.00 | 0.00 | 96 | 1009.1 |
| 20260905042915 | 64 | 31 | 2.0 | 3.0 | 0.00 | 0.00 | 0.00 | 96 | 1009.2 |
| 20260905042410 | 63 | 33 | 0.0 | 3.0 | 0.00 | 0.00 | 0.00 | 96 | 1009.1 |
| 20260905041905 | 63 | 312 | 1.0 | 3.0 | 0.00 | 0.00 | 0.00 | 97 | 1009.1 |
| 20260905041401 | 63 | 28 | 2.0 | 4.0 | 0.00 | 0.00 | 0.00 | 97 | 1009.0 |
| 20260905040900 | 63 | 13 | 2.0 | 3.0 | 0.00 | 0.00 | 0.00 | 98 | 1009.2 |
| 20260905040355 | 63 | 36 | 0.0 | 2.0 | 0.00 | 0.00 | 0.00 | 99 | 1009.0 |
| 20260905035854 | 63 | 222 | 0.0 | 2.0 | 0.00 | 0.01 | 0.01 | 99 | 1008.9 |
| 20260905035350 | 63 | 224 | 0.0 | 5.0 | 0.00 | 0.01 | 0.01 | 99 | 1009.0 |
| 20260905034846 | 63 | 94 | 3.0 | 5.0 | 0.00 | 0.01 | 0.01 | 99 | 1009.1 |
| 20260905034342 | 63 | 115 | 0.0 | 2.0 | 0.00 | 0.01 | 0.01 | 99 | 1008.9 |
| 20260905033840 | 62 | 114 | 0.0 | 2.0 | 0.00 | 0.01 | 0.01 | 99 | 1008.9 |
| 20260905033336 | 62 | 147 | 1.0 | 1.0 | 0.00 | 0.01 | 0.01 | 99 | 1008.8 |
| 20260905032835 | 63 | 23 | 0.0 | 1.0 | 0.00 | 0.01 | 0.01 | 99 | 1008.8 |
| 20260905032331 | 63 | 336 | 0.0 | 2.0 | 0.00 | 0.01 | 0.01 | 99 | 1008.9 |
| 20260905031826 | 63 | 261 | 1.0 | 1.0 | 0.00 | 0.01 | 0.01 | 99 | 1009.0 |
| 20260905031321 | 63 | 176 | 2.0 | 2.0 | 0.00 | 0.01 | 0.01 | 99 | 1008.9 |
| 20260905030816 | 63 | 175 | 1.0 | 3.0 | 0.00 | 0.01 | 0.01 | 99 | 1008.9 |
| 20260905030312 | 63 | 205 | 3.0 | 3.0 | 0.00 | 0.01 | 0.01 | 99 | 1008.9 |
| 20260905025811 | 63 | 198 | 1.0 | 3.0 | 0.00 | 0.01 | 0.01 | 99 | 1008.6 |
| 20260905025307 | 64 | 189 | 0.0 | 2.0 | 0.00 | 0.01 | 0.01 | 99 | 1008.6 |
| 20260905024803 | 64 | 235 | 0.0 | 3.0 | 0.00 | 0.01 | 0.01 | 99 | 1008.6 |
| 20260905024258 | 64 | 125 | 0.0 | 1.0 | 0.00 | 0.01 | 0.01 | 99 | 1008.9 |
| 20260905023753 | 64 | 280 | 2.0 | 3.0 | 0.00 | 0.01 | 0.01 | 99 | 1008.7 |
| 20260905023248 | 64 | 280 | 0.0 | 2.0 | 0.00 | 0.01 | 0.01 | 99 | 1008.5 |
| 20260905022747 | 64 | 229 | 0.0 | 2.0 | 0.00 | 0.01 | 0.01 | 99 | 1008.7 |
| 20260905022243 | 64 | 261 | 1.0 | 1.0 | 0.00 | 0.01 | 0.01 | 99 | 1008.7 |
| 20260905021743 | 64 | 355 | 0.0 | 0.0 | 0.00 | 0.01 | 0.01 | 98 | 1008.8 |
| 20260905021237 | 64 | 295 | 0.0 | 0.0 | 0.00 | 0.01 | 0.01 | 98 | 1008.8 |
| 20260905020732 | 65 | 309 | 0.0 | 2.0 | 0.00 | 0.01 | 0.01 | 98 | 1008.9 |
| 20260905020227 | 65 | 240 | 0.0 | 2.0 | 0.00 | 0.01 | 0.01 | 98 | 1008.9 |
| 20260905015726 | 65 | 293 | 1.0 | 2.0 | 0.00 | 0.01 | 0.01 | 98 | 1008.9 |
| 20260905015221 | 65 | 305 | 0.0 | 2.0 | 0.00 | 0.01 | 0.01 | 98 | 1009.1 |
| 20260905014720 | 65 | 234 | 1.0 | 2.0 | 0.00 | 0.01 | 0.01 | 98 | 1009.0 |
| 20260905014216 | 65 | 300 | 0.0 | 1.0 | 0.00 | 0.01 | 0.01 | 98 | 1009.1 |
| 20260905013711 | 65 | 317 | 0.0 | 2.0 | 0.00 | 0.01 | 0.01 | 98 | 1009.2 |
| 20260905013207 | 65 | 50 | 0.0 | 2.0 | 0.00 | 0.01 | 0.01 | 97 | 1009.2 |
| 20260905012702 | 66 | 259 | 0.0 | 2.0 | 0.00 | 0.01 | 0.01 | 97 | 1009.3 |
| 20260905012158 | 66 | 264 | 0.0 | 2.0 | 0.00 | 0.01 | 0.01 | 97 | 1009.1 |
| 20260905011654 | 66 | 273 | 0.0 | 1.0 | 0.00 | 0.01 | 0.01 | 97 | 1009.2 |
| 20260905011150 | 66 | 263 | 0.0 | 2.0 | 0.00 | 0.01 | 0.01 | 97 | 1009.2 |
| 20260905010644 | 66 | 34 | 0.0 | 2.0 | 0.00 | 0.01 | 0.01 | 96 | 1009.3 |
| 20260905010140 | 66 | 242 | 0.0 | 2.0 | 0.00 | 0.01 | 0.01 | 96 | 1009.5 |
| 20260905005636 | 66 | 24 | 0.0 | 3.0 | 0.00 | 0.01 | 0.01 | 96 | 1009.4 |
| 20260905005131 | 67 | 30 | 0.0 | 2.0 | 0.00 | 0.01 | 0.01 | 96 | 1009.3 |
| 20260905004625 | 67 | 305 | 0.0 | 1.0 | 0.00 | 0.01 | 0.01 | 96 | 1009.2 |
| 20260905004120 | 67 | 295 | 1.0 | 2.0 | 0.00 | 0.01 | 0.01 | 96 | 1009.1 |
| 20260905003616 | 67 | 9 | 0.0 | 2.0 | 0.00 | 0.01 | 0.01 | 96 | 1009.4 |
| 20260905003112 | 67 | 299 | 0.0 | 1.0 | 0.00 | 0.01 | 0.01 | 96 | 1009.2 |
| 20260905002607 | 67 | 295 | 0.0 | 1.0 | 0.00 | 0.01 | 0.01 | 95 | 1009.3 |
| 20260905002101 | 67 | 49 | 0.0 | 1.0 | 0.00 | 0.01 | 0.01 | 94 | 1009.3 |
| 20260905001556 | 68 | 9 | 0.0 | 1.0 | 0.00 | 0.01 | 0.01 | 93 | 1009.0 |
| 20260905001051 | 68 | 23 | 1.0 | 2.0 | 0.00 | 0.01 | 0.01 | 93 | 1009.0 |
| 20260905000546 | 68 | 11 | 1.0 | 2.0 | 0.00 | 0.01 | 0.01 | 92 | 1008.9 |
| 20260905000042 | 68 | 39 | 1.0 | 1.0 | 0.00 | 0.01 | 0.01 | 91 | 1008.9 |
| 20260904235537 | 68 | 33 | 0.0 | 1.0 | 0.00 | 0.01 | 0.01 | 90 | 1008.9 |
| 20260904235037 | 69 | 49 | 0.0 | 2.0 | 0.00 | 0.01 | 0.01 | 90 | 1008.8 |
| 20260904234537 | 69 | 9 | 0.0 | 2.0 | 0.00 | 0.01 | 0.01 | 89 | 1008.7 |
| 20260904234032 | 70 | 138 | 0.0 | 1.0 | 0.00 | 0.01 | 0.01 | 86 | 1008.6 |
| 20260904233527 | 70 | 37 | 0.0 | 1.0 | 0.00 | 0.01 | 0.01 | 87 | 1008.6 |
| 20260904233024 | 71 | 33 | 1.0 | 2.0 | 0.00 | 0.01 | 0.01 | 85 | 1008.6 |
| 20260904232520 | 71 | 23 | 0.0 | 2.0 | 0.00 | 0.01 | 0.01 | 84 | 1008.7 |
| 20260904232017 | 71 | 23 | 0.0 | 1.0 | 0.00 | 0.01 | 0.01 | 85 | 1008.7 |
| 20260904231512 | 72 | 122 | 0.0 | 0.0 | 0.00 | 0.01 | 0.01 | 84 | 1008.6 |
| 20260904231007 | 73 | 79 | 0.0 | 1.0 | 0.00 | 0.01 | 0.01 | 83 | 1008.6 |
| 20260904230506 | 73 | 83 | 0.0 | 1.0 | 0.00 | 0.01 | 0.01 | 83 | 1008.6 |
| 20260904230001 | 73 | 85 | 1.0 | 2.0 | 0.00 | 0.01 | 0.01 | 82 | 1008.6 |
| 20260904225458 | 74 | 73 | 0.0 | 2.0 | 0.00 | 0.01 | 0.01 | 81 | 1008.7 |
| 20260904224953 | 74 | 119 | 0.0 | 1.0 | 0.00 | 0.01 | 0.01 | 80 | 1008.6 |
| 20260904224449 | 75 | 317 | 0.0 | 0.0 | 0.00 | 0.01 | 0.01 | 77 | 1008.7 |
| 20260904223948 | 76 | 317 | 0.0 | 0.0 | 0.00 | 0.01 | 0.01 | 76 | 1008.5 |
| 20260904223447 | 76 | 247 | 0.0 | 1.0 | 0.00 | 0.01 | 0.01 | 74 | 1008.7 |
| 20260904222943 | 77 | 204 | 0.0 | 2.0 | 0.00 | 0.01 | 0.01 | 69 | 1008.6 |
| 20260904222438 | 78 | 355 | 0.0 | 2.0 | 0.00 | 0.01 | 0.01 | 70 | 1008.5 |
| 20260904221932 | 78 | 333 | 2.0 | 3.0 | 0.00 | 0.01 | 0.01 | 67 | 1008.4 |
| 20260904221427 | 78 | 33 | 0.0 | 4.0 | 0.00 | 0.01 | 0.01 | 66 | 1008.5 |
| 20260904220923 | 78 | 79 | 0.0 | 3.0 | 0.00 | 0.01 | 0.01 | 66 | 1008.4 |
| 20260904220421 | 78 | 320 | 1.0 | 3.0 | 0.00 | 0.01 | 0.01 | 65 | 1008.5 |
| 20260904215917 | 78 | 71 | 1.0 | 3.0 | 0.00 | 0.01 | 0.01 | 65 | 1008.4 |
| 20260904215412 | 79 | 261 | 2.0 | 2.0 | 0.00 | 0.01 | 0.01 | 65 | 1008.4 |
| 20260904214908 | 79 | 43 | 2.0 | 3.0 | 0.00 | 0.01 | 0.01 | 65 | 1008.2 |
| 20260904214404 | 79 | 150 | 0.0 | 2.0 | 0.00 | 0.01 | 0.01 | 67 | 1008.2 |
| 20260904213902 | 79 | 150 | 0.0 | 2.0 | 0.00 | 0.01 | 0.01 | 64 | 1008.2 |
| 20260904213357 | 79 | 12 | 2.0 | 3.0 | 0.00 | 0.01 | 0.01 | 64 | 1008.3 |
| 20260904212853 | 79 | 310 | 0.0 | 5.0 | 0.00 | 0.01 | 0.01 | 63 | 1008.3 |
| 20260904212347 | 80 | 50 | 0.0 | 3.0 | 0.00 | 0.01 | 0.01 | 63 | 1008.5 |
| 20260904211842 | 80 | 95 | 2.0 | 3.0 | 0.00 | 0.01 | 0.01 | 62 | 1008.4 |
| 20260904211337 | 80 | 345 | 2.0 | 5.0 | 0.00 | 0.01 | 0.01 | 61 | 1008.4 |
| 20260904210832 | 80 | 286 | 1.0 | 6.0 | 0.00 | 0.01 | 0.01 | 61 | 1008.6 |
| 20260904210326 | 82 | 131 | 1.0 | 5.0 | 0.00 | 0.01 | 0.01 | 58 | 1008.5 |
| 20260904205823 | 82 | 61 | 3.0 | 5.0 | 0.00 | 0.01 | 0.01 | 57 | 1008.6 |
| 20260904205318 | 81 | 164 | 1.0 | 8.0 | 0.00 | 0.01 | 0.01 | 60 | 1008.6 |
| 20260904204815 | 82 | 329 | 3.0 | 5.0 | 0.00 | 0.01 | 0.01 | 57 | 1008.4 |
| 20260904204310 | 82 | 346 | 0.0 | 4.0 | 0.00 | 0.01 | 0.01 | 58 | 1008.5 |
| 20260904203806 | 82 | 316 | 2.0 | 9.0 | 0.00 | 0.01 | 0.01 | 58 | 1008.4 |
| 20260904203302 | 82 | 99 | 4.0 | 7.0 | 0.00 | 0.01 | 0.01 | 57 | 1008.5 |
| 20260904202757 | 83 | 357 | 3.0 | 9.0 | 0.00 | 0.01 | 0.01 | 56 | 1008.5 |
| 20260904202254 | 81 | 305 | 0.0 | 2.0 | 0.00 | 0.01 | 0.01 | 58 | 1008.5 |
| 20260904201744 | 81 | 37 | 4.0 | 7.0 | 0.00 | 0.01 | 0.01 | 57 | 1008.4 |
| 20260904201243 | 81 | 356 | 4.0 | 8.0 | 0.00 | 0.01 | 0.01 | 57 | 1008.6 |
| 20260904200738 | 81 | 201 | 3.0 | 5.0 | 0.00 | 0.01 | 0.01 | 56 | 1008.5 |
| 20260904200233 | 81 | 49 | 3.0 | 8.0 | 0.00 | 0.01 | 0.01 | 59 | 1008.6 |
| 20260904195732 | 82 | 62 | 2.0 | 7.0 | 0.00 | 0.01 | 0.01 | 54 | 1008.5 |
| 20260904195231 | 82 | 59 | 2.0 | 8.0 | 0.00 | 0.01 | 0.01 | 57 | 1008.5 |
| 20260904194726 | 81 | 29 | 3.0 | 11.0 | 0.00 | 0.01 | 0.01 | 56 | 1008.7 |
| 20260904194225 | 82 | 61 | 6.0 | 7.0 | 0.00 | 0.01 | 0.01 | 53 | 1008.8 |
| 20260904193721 | 82 | 34 | 2.0 | 4.0 | 0.00 | 0.01 | 0.01 | 58 | 1008.6 |
| 20260904193216 | 81 | 174 | 1.0 | 9.0 | 0.00 | 0.01 | 0.01 | 56 | 1008.7 |
| 20260904192711 | 82 | 32 | 4.0 | 8.0 | 0.00 | 0.01 | 0.01 | 54 | 1008.6 |
| 20260904192206 | 82 | 30 | 4.0 | 5.0 | 0.00 | 0.01 | 0.01 | 57 | 1008.6 |
| 20260904191703 | 82 | 13 | 3.0 | 8.0 | 0.00 | 0.01 | 0.01 | 58 | 1008.8 |
| 20260904191159 | 81 | 337 | 4.0 | 16.0 | 0.00 | 0.01 | 0.01 | 57 | 1009.0 |
| 20260904190655 | 81 | 62 | 5.0 | 11.0 | 0.00 | 0.01 | 0.01 | 56 | 1008.8 |
| 20260904190151 | 82 | 242 | 3.0 | 8.0 | 0.00 | 0.01 | 0.01 | 55 | 1008.9 |
| 20260904185647 | 82 | 323 | 4.0 | 6.0 | 0.00 | 0.01 | 0.01 | 57 | 1008.8 |
| 20260904185142 | 82 | 11 | 5.0 | 8.0 | 0.00 | 0.01 | 0.01 | 53 | 1008.9 |
| 20260904184640 | 81 | 133 | 2.0 | 7.0 | 0.00 | 0.01 | 0.01 | 56 | 1008.8 |
| 20260904184136 | 81 | 79 | 9.0 | 10.0 | 0.00 | 0.01 | 0.01 | 56 | 1009.2 |
| 20260904183632 | 81 | 175 | 5.0 | 8.0 | 0.00 | 0.01 | 0.01 | 60 | 1009.1 |
| 20260904183126 | 80 | 60 | 4.0 | 5.0 | 0.00 | 0.01 | 0.01 | 58 | 1009.2 |
| 20260904182621 | 81 | 111 | 5.0 | 13.0 | 0.00 | 0.01 | 0.01 | 57 | 1009.1 |
| 20260904182116 | 80 | 118 | 5.0 | 9.0 | 0.00 | 0.01 | 0.01 | 59 | 1008.9 |
| 20260904181612 | 78 | 82 | 2.0 | 8.0 | 0.00 | 0.01 | 0.01 | 60 | 1008.9 |
| 20260904181112 | 80 | 67 | 2.0 | 6.0 | 0.00 | 0.01 | 0.01 | 61 | 1009.1 |
| 20260904180607 | 80 | 267 | 2.0 | 7.0 | 0.00 | 0.01 | 0.01 | 62 | 1008.9 |
| 20260904175602 | 79 | 22 | 2.0 | 7.0 | 0.00 | 0.01 | 0.01 | 61 | 1009.2 |
| 20260904175100 | 81 | 113 | 2.0 | 5.0 | 0.00 | 0.01 | 0.01 | 60 | 1009.0 |
| 20260904174555 | 82 | 356 | 2.0 | 7.0 | 0.00 | 0.01 | 0.01 | 56 | 1009.0 |
| 20260904174052 | 80 | 213 | 1.0 | 8.0 | 0.00 | 0.01 | 0.01 | 61 | 1008.9 |
| 20260904173551 | 80 | 288 | 6.0 | 11.0 | 0.00 | 0.01 | 0.01 | 61 | 1008.8 |
| 20260904173047 | 82 | 94 | 1.0 | 5.0 | 0.00 | 0.01 | 0.01 | 60 | 1008.6 |
| 20260904172543 | 82 | 298 | 4.0 | 7.0 | 0.00 | 0.01 | 0.01 | 58 | 1008.8 |
| 20260904172042 | 81 | 110 | 4.0 | 7.0 | 0.00 | 0.01 | 0.01 | 61 | 1008.8 |
| 20260904171537 | 82 | 61 | 5.0 | 10.0 | 0.00 | 0.01 | 0.01 | 59 | 1008.9 |
| 20260904171033 | 82 | 297 | 3.0 | 7.0 | 0.00 | 0.01 | 0.01 | 58 | 1008.9 |
| 20260904170528 | 81 | 57 | 2.0 | 5.0 | 0.00 | 0.01 | 0.01 | 59 | 1009.1 |
| 20260904170025 | 81 | 37 | 4.0 | 7.0 | 0.00 | 0.01 | 0.01 | 61 | 1009.0 |
| 20260904165523 | 80 | 30 | 5.0 | 7.0 | 0.00 | 0.01 | 0.01 | 63 | 1009.1 |
| 20260904165023 | 80 | 50 | 10.0 | 13.0 | 0.00 | 0.01 | 0.01 | 61 | 1009.0 |
| 20260904164518 | 80 | 204 | 3.0 | 12.0 | 0.00 | 0.01 | 0.01 | 61 | 1009.3 |
| 20260904164014 | 81 | 159 | 6.0 | 6.0 | 0.00 | 0.01 | 0.01 | 61 | 1009.2 |
| 20260904163514 | 80 | 6 | 2.0 | 5.0 | 0.00 | 0.01 | 0.01 | 67 | 1009.3 |
| 20260904163009 | 80 | 97 | 4.0 | 9.0 | 0.00 | 0.01 | 0.01 | 64 | 1009.3 |
| 20260904162503 | 80 | 135 | 4.0 | 6.0 | 0.00 | 0.01 | 0.01 | 66 | 1009.3 |
| 20260904161958 | 79 | 22 | 3.0 | 7.0 | 0.00 | 0.01 | 0.01 | 65 | 1009.4 |
| 20260904161454 | 79 | 0 | 2.0 | 5.0 | 0.00 | 0.01 | 0.01 | 64 | 1009.3 |
| 20260904160949 | 80 | 26 | 4.0 | 6.0 | 0.00 | 0.01 | 0.01 | 67 | 1009.5 |
| 20260904160443 | 80 | 131 | 2.0 | 5.0 | 0.00 | 0.01 | 0.01 | 66 | 1009.5 |
| 20260904155938 | 79 | 207 | 4.0 | 5.0 | 0.00 | 0.01 | 0.01 | 67 | 1009.5 |
| 20260904155433 | 79 | 112 | 3.0 | 8.0 | 0.00 | 0.01 | 0.01 | 68 | 1009.8 |
| 20260904154932 | 79 | 66 | 4.0 | 7.0 | 0.00 | 0.01 | 0.01 | 67 | 1009.8 |
| 20260904154427 | 78 | 108 | 3.0 | 12.0 | 0.00 | 0.01 | 0.01 | 74 | 1009.6 |
| 20260904153922 | 80 | 82 | 7.0 | 8.0 | 0.00 | 0.01 | 0.01 | 69 | 1009.7 |
| 20260904153417 | 79 | 30 | 2.0 | 10.0 | 0.00 | 0.01 | 0.01 | 73 | 1009.7 |
| 20260904152913 | 79 | 16 | 3.0 | 10.0 | 0.00 | 0.01 | 0.01 | 68 | 1009.6 |
| 20260904152408 | 79 | 62 | 3.0 | 7.0 | 0.00 | 0.01 | 0.01 | 72 | 1010.1 |
| 20260904151907 | 78 | 340 | 4.0 | 7.0 | 0.00 | 0.01 | 0.01 | 71 | 1010.1 |
| 20260904151402 | 80 | 145 | 4.0 | 8.0 | 0.00 | 0.01 | 0.01 | 68 | 1009.9 |
| 20260904150858 | 78 | 103 | 3.0 | 6.0 | 0.00 | 0.01 | 0.01 | 70 | 1010.0 |
| 20260904150353 | 79 | 163 | 4.0 | 6.0 | 0.00 | 0.01 | 0.01 | 72 | 1010.0 |
| 20260904145850 | 78 | 188 | 2.0 | 5.0 | 0.00 | 0.01 | 0.01 | 74 | 1009.9 |
| 20260904145347 | 79 | 106 | 2.0 | 6.0 | 0.00 | 0.01 | 0.01 | 72 | 1010.0 |
| 20260904144842 | 78 | 51 | 3.0 | 6.0 | 0.00 | 0.01 | 0.01 | 73 | 1009.9 |
| 20260904144338 | 79 | 127 | 2.0 | 5.0 | 0.00 | 0.01 | 0.01 | 75 | 1009.7 |
| 20260904143833 | 79 | 101 | 1.0 | 3.0 | 0.00 | 0.01 | 0.01 | 76 | 1009.7 |
| 20260904143329 | 77 | 269 | 0.0 | 8.0 | 0.00 | 0.01 | 0.01 | 75 | 1009.7 |
| 20260904142820 | 78 | 30 | 2.0 | 7.0 | 0.00 | 0.01 | 0.01 | 77 | 1009.7 |
| 20260904142315 | 78 | 23 | 0.0 | 3.0 | 0.00 | 0.01 | 0.01 | 78 | 1010.0 |
| 20260904141810 | 77 | 113 | 2.0 | 3.0 | 0.00 | 0.01 | 0.01 | 77 | 1009.9 |
| 20260904141305 | 77 | 351 | 4.0 | 8.0 | 0.00 | 0.01 | 0.01 | 76 | 1009.8 |
| 20260904140801 | 77 | 66 | 2.0 | 5.0 | 0.00 | 0.01 | 0.01 | 77 | 1009.8 |
| 20260904140256 | 77 | 197 | 3.0 | 7.0 | 0.00 | 0.01 | 0.01 | 79 | 1009.7 |
| 20260904135755 | 77 | 86 | 1.0 | 4.0 | 0.00 | 0.01 | 0.01 | 77 | 1009.9 |
| 20260904135250 | 76 | 20 | 4.0 | 7.0 | 0.00 | 0.01 | 0.01 | 77 | 1009.9 |
| 20260904134747 | 76 | 83 | 0.0 | 6.0 | 0.00 | 0.01 | 0.01 | 79 | 1010.1 |
| 20260904134246 | 76 | 47 | 3.0 | 6.0 | 0.00 | 0.01 | 0.01 | 81 | 1009.9 |
| 20260904133741 | 75 | 206 | 2.0 | 5.0 | 0.00 | 0.01 | 0.01 | 82 | 1010.0 |
| 20260904133237 | 75 | 41 | 3.0 | 6.0 | 0.00 | 0.01 | 0.01 | 81 | 1010.0 |
| 20260904132736 | 75 | 76 | 1.0 | 7.0 | 0.00 | 0.01 | 0.01 | 82 | 1009.9 |
| 20260904132232 | 75 | 168 | 0.0 | 5.0 | 0.00 | 0.01 | 0.01 | 85 | 1010.0 |
| 20260904131731 | 75 | 57 | 5.0 | 9.0 | 0.00 | 0.01 | 0.01 | 84 | 1010.1 |
| 20260904131227 | 75 | 34 | 3.0 | 5.0 | 0.00 | 0.01 | 0.01 | 85 | 1010.0 |
| 20260904130727 | 74 | 303 | 0.0 | 6.0 | 0.00 | 0.01 | 0.01 | 89 | 1010.1 |
| 20260904130225 | 74 | 88 | 4.0 | 6.0 | 0.00 | 0.01 | 0.01 | 88 | 1010.1 |
| 20260904125722 | 73 | 340 | 1.0 | 3.0 | 0.00 | 0.01 | 0.01 | 95 | 1010.1 |
| 20260904125218 | 72 | 92 | 0.0 | 3.0 | 0.00 | 0.01 | 0.01 | 99 | 1010.1 |
| 20260904124712 | 71 | 247 | 0.0 | 1.0 | 0.00 | 0.01 | 0.01 | 99 | 1010.0 |
| 20260904124208 | 70 | 314 | 0.0 | 3.0 | 0.00 | 0.01 | 0.01 | 99 | 1009.9 |
| 20260904123703 | 71 | 264 | 0.0 | 0.0 | 0.00 | 0.01 | 0.01 | 99 | 1010.0 |
| 20260904123159 | 69 | 229 | 0.0 | 2.0 | 0.00 | 0.01 | 0.01 | 99 | 1009.9 |
| 20260904122658 | 69 | 26 | 0.0 | 3.0 | 0.00 | 0.01 | 0.01 | 99 | 1010.0 |
| 20260904122153 | 69 | 268 | 3.0 | 3.0 | 0.00 | 0.01 | 0.01 | 99 | 1009.9 |
| 20260904121648 | 69 | 335 | 1.0 | 3.0 | 0.00 | 0.01 | 0.01 | 99 | 1010.1 |
| 20260904121144 | 68 | 345 | 1.0 | 2.0 | 0.00 | 0.01 | 0.01 | 99 | 1010.0 |
| 20260904120640 | 69 | 49 | 0.0 | 2.0 | 0.00 | 0.01 | 0.01 | 99 | 1009.9 |
| 20260904120136 | 68 | 100 | 0.0 | 2.0 | 0.00 | 0.01 | 0.01 | 99 | 1009.9 |
| 20260904115631 | 69 | 73 | 0.0 | 3.0 | 0.00 | 0.01 | 0.01 | 99 | 1009.9 |
| 20260904115125 | 68 | 345 | 0.0 | 2.0 | 0.00 | 0.01 | 0.01 | 99 | 1010.0 |
| 20260904114620 | 68 | 76 | 0.0 | 2.0 | 0.00 | 0.01 | 0.01 | 99 | 1009.8 |
| 20260904114115 | 68 | 26 | 2.0 | 3.0 | 0.00 | 0.01 | 0.01 | 99 | 1009.7 |
| 20260904113614 | 68 | 355 | 0.0 | 1.0 | 0.00 | 0.01 | 0.01 | 99 | 1009.7 |
| 20260904113114 | 68 | 356 | 0.0 | 2.0 | 0.00 | 0.01 | 0.01 | 99 | 1009.5 |
| 20260904112609 | 68 | 355 | 0.0 | 1.0 | 0.00 | 0.01 | 0.01 | 99 | 1009.4 |
| 20260904112105 | 68 | 9 | 0.0 | 2.0 | 0.00 | 0.01 | 0.01 | 99 | 1009.3 |
| 20260904111600 | 68 | 73 | 0.0 | 1.0 | 0.00 | 0.01 | 0.01 | 99 | 1009.5 |